Regional Weather Roundup
Issued by NWS Austin/San Antonio, TX

Home | Current Version | Previous Version | Text Only | Print | Product List | Glossary On
Versions: 1 2 3 4 5 6 7 8 9 10 11 12 13 14 15 16 17 18 19 20 21 22 23 24 25 26 27 28 29 30 31 32 33 34 35 36 37 38 39 40 41 42 43 44 45 46 47 48 49 50
900
ASUS44 KEWX 291112
RWREWX
SOUTH TEXAS REGIONAL WEATHER ROUNDUP
NATIONAL WEATHER SERVICE AUSTIN/SAN ANTONIO TX
600 AM CDT THU JUN 29 2017

NOTE: "FAIR" INDICATED FEW OR NO CLOUDS BELOW 12,000 FEET WITH NO
SIGNIFICANT WEATHER AND/OR OBSTRUCTIONS TO VISIBILITY.

* - THESE STATIONS ARE NOT NWS OR FAA STATIONS...AND ARE NOT SUBJECT
    TO NWS AND FAA QUALITY CONTROL.

TXZ171-172-183>190-291200-
TEXAS HILL COUNTRY AND EDWARDS PLATEAU

CITY           SKY/WX    TMP DP  RH WIND       PRES   REMARKS
JUNCTION       MOCLDY    75  70  84 S3        29.89R
*LLANO         CLOUDY    73  72  94 CALM      29.91S
BURNET         CLOUDY    74  71  91 S6        29.91R
*HORSESHOE BAY MOCLDY    74  71  89 MISG      29.88S
*KERRVILLE     CLOUDY    74  72  94 S5        29.91R
*FREDERICKSBRG CLOUDY    73  70  89 S3        29.90S
*ROCKSPRINGS   CLOUDY    73  73 100 S9        29.93S
*BOERNE STAGE  CLEAR     70  70 100 CALM      29.90S
*CASTROVILLE   CLEAR     72  71  98 CALM      29.87S
HONDO          CLEAR     72  71  97 NE5       29.86S
*UVALDE        CLEAR     71  70  97 CALM      29.87R
DEL RIO        CLEAR     76  71  85 E8        29.82R
LAUGHLIN AFB   PTCLDY    76  72  88 SE9       29.83R
CARRIZO SPRGS  CLEAR     73  72  94 CALM      29.82R
*EAGLE PASS    SUNNY     75  72  88 E7        29.83R
$$

TXZ173-191>194-202-209-217>225-228-291200-
CENTRAL AND SOUTH CENTRAL TEXAS

CITY           SKY/WX    TMP DP  RH WIND       PRES   REMARKS
GEORGETOWN     MOCLDY    73  70  88 CALM      29.88R
AUSTIN/BERGSTM CLOUDY    76  75  97 S5        29.86S
AUSTIN/MABRY   MOCLDY    76  73  91 CALM      29.88R
*AUSTIN/EXEC     N/A     73  73 100 CALM      29.88R
*LAGO VISTA    CLOUDY    75  73  92 SW5       29.90R
SAN MARCOS     CLOUDY    73  73 100 S3        29.88R
NEW BRAUNFELS  CLOUDY    75  73  93 CALM      29.85S
RANDOLPH AFB   NOT AVBL
PT SAN ANTONIO CLEAR     75  73  93 CALM      29.84R
SAN ANTONIO    CLEAR     73  71  93 CALM      29.87R
STINSON FIELD  CLEAR     75  72  90 CALM      29.84R
*LA GRANGE     MOCLDY    75  75  99 CALM      29.85R
*GIDDINGS      MOCLDY    73  72  95 CALM      29.88R
*GONZALES      PTCLDY    75  75 100 CALM      29.85R
$$

TXZ163>164-176>182-195>201-210>213-226-227-235-291200-
SOUTHEAST TEXAS

CITY           SKY/WX    TMP DP  RH WIND       PRES   REMARKS
COLLEGE STN    CLOUDY    75  72  90 E3        29.87R
*BRYAN         PTCLDY    70  70 100 CALM      29.89R
*CALDWELL      NOT AVBL
*CROCKETT      CLOUDY    72  70  94 CALM      29.92R
*BRENHAM       CLOUDY    75  74  98 CALM      29.88R
HUNTSVILLE     PTCLDY    73  70  90 CALM      29.88R
CONROE         CLOUDY    71  70  96 CALM      29.88R
HOUSTON BUSH   PTCLDY    75  73  93 SE3       29.86R
HOUSTON HOBBY  PTCLDY    77  74  90 CALM      29.85S
*HOUSTON SW AP PTCLDY    74  72  96 SE3       29.87R
PEARLAND       CLEAR     78  75  90 CALM      29.87S
HOUSTON HOOKS  PTCLDY    75  72  90 CALM      29.87R
ELLINGTON FLD  PTCLDY    77  75  94 CALM      29.88
SUGAR LAND     CLEAR     78  76  93 E3        29.85S
*HOUSTON EXEC  CLEAR     73  73 100 E3        29.87R
*CLEVELAND MUN FOG       73  72  96 CALM      29.88S VSB 1
*WHARTON       PTCLDY    72  71  95 CALM      29.86R
*COLUMBUS      MOCLDY    73  71  95 CALM      29.87R
*EAGLE LAKE    MOSUNNY   75  75 100 CALM      29.86R
$$

TXZ214>216-236>238-291200-
THE UPPER TEXAS COAST

CITY           SKY/WX    TMP DP  RH WIND       PRES   REMARKS
*ORANGE        TSTM      79  78  95 CALM      29.89S
PORT ARTHUR      N/A    N/A N/A N/A MISG      29.87R THUNDER
GALVESTON      LGT RAIN  78  77  96 SW7       29.87S
ANGLETON       HVY RAIN  78  77  96 W5        29.85F FOG
*BAY CITY      CLOUDY    77  77 100 S6        29.86R
PALACIOS       TSTM      75  75 100 SE5       29.85R FOG
$$

TXZ229>234-239>247-291200-
TEXAS COASTAL BEND AND RIO GRANDE PLAINS

CITY           SKY/WX    TMP DP  RH WIND       PRES   REMARKS
VICTORIA       MOCLDY    75  73  93 CALM      29.85R
*BEEVILLE      PTCLDY   N/A N/A N/A CALM      29.84S FOG
ROCKPORT       CLEAR     79  76  90 S3        29.83S
*PORT ARANSAS  PTCLDY    82  75  80 S12G18    29.83S
*PORT LAVACA   CLOUDY    77  77 100 CALM      29.84F
*INGLESIDE     PTCLDY    83  77  84 MISG      29.83S HX  91
CORPUS CHRISTI PTCLDY    76  76 100 S5        29.83R
CORPUS NAS     CLEAR     83  79  88 S12       29.83R HX  94
*ROBSTOWN      CLEAR     78  32  18 S6        29.84R
ALICE          CLEAR     74  74 100 SE6       29.83R FOG
KINGSVILLE NAS PTCLDY    78  78 100 SE6       29.84R
COTULLA        CLEAR     75  72  90 E5        29.82R
*FAITH RANCH   CLEAR     77  73  88 SE5       29.82R
LAREDO         CLEAR     78  74  87 SE9       29.83R
$$

TXZ248>255-291200-
DEEP SOUTH TEXAS

CITY           SKY/WX    TMP DP  RH WIND       PRES   REMARKS
BROWNSVILLE    CLEAR     79  77  94 S9        29.84R
PORT ISABEL    CLEAR     80  78  94 S9        29.83R
*SOUTH PADRE   NOT AVBL
HARLINGEN      CLEAR     79  79 100 S12       29.82R
*HEBBRONVILLE  CLEAR     74  73  95 S3        29.85R FOG
MCALLEN        CLEAR     81  76  84 S12       29.83R
*WESLACO       CLEAR     78  76  92 S10       29.82R
FALFURRIAS     CLEAR     77  76  95 SE6       29.83R
EDINBURG       CLEAR     81  76  86 S6        29.83S
*ZAPATA        NOT AVBL
$$

TXZ213>215-236>238-242>244-246-247-251-254-255-291200-
CMAN STATIONS

STATION/POSITION TIME  TEMP    WIND        PRES    WAVE
                       AIR SEA DIR/SP/G            HT/PER
                 (UTC) (F)     (DEG/KT/KT) (MB)    (FT/S)
SABINE PASS      1048   81 84  180/ 13/ 19 1013.0
SEA RIM ST PARK  1100   80     190/ 17/ 21 1012.4
NORTH JETTY/GLS  1048          220/  9/ 10   N/A
EAGLE POINT      1048   77 83  240/  9/ 12 1011.2
MORGANS POINT    1048   79 84  190/  3/  5 1010.9
MISSION/ARANSAS  1000          200/  6       N/A
PORT O`CONNOR    1048   78     270/  8/ 10 1010.0
PORT ARANSAS     1100   84 85  180/ 19/ 20 1010.1
MALAQUITE BEACH  1048   84 86  170/ 19/ 22 1009.3
PORT ISABEL      1048   81 85              1010.4
$$




USA.gov is the U.S. government's official web portal to all federal, state and local government web resources and services.